MDT,Max TemperatureF,Mean TemperatureF,Min TemperatureF,Max Dew PointF,MeanDew PointF,Min DewpointF,Max Humidity, Mean Humidity, Min Humidity, Max Sea Level PressureIn, Mean Sea Level PressureIn, Min Sea Level PressureIn, Max VisibilityMiles, Mean VisibilityMiles, Min VisibilityMiles, Max Wind SpeedMPH, Mean Wind SpeedMPH, Max Gust SpeedMPH,PrecipitationIn, CloudCover, Events, WindDirDegrees
2013-9-1,,,,,,,,,,,,,,,,,,,,,,
2013-9-2,59,52,46,45,40,36,87,67,54,30.71,30.68,30.66,10,10,10,20,10,22,0.00,6,Rain-Thunderstorm,321
2013-9-3,55,50,44,43,41,37,93,74,54,30.73,30.70,30.68,10,10,10,17,10,,0.00,3,Thunderstorm,229
2013-9-4,51,48,46,45,41,39,82,72,62,30.76,30.73,30.72,10,10,10,17,7,,0.00,7,Rain-Thunderstorm,199
2013-9-5,,,,,,,,,,,,,,,,,,,,,,
2013-9-6,,,,,,,,,,,,,,,,,,,,,,
2013-9-7,,,,,,,,,,,,,,,,,,,,,,
2013-9-8,,,,,,,,,,,,,,,,,,,,,,
2013-9-9,51,46,41,43,40,37,100,84,62,30.45,30.42,30.40,10,9,2,21,11,34,0.06,6,Rain-Thunderstorm,225
2013-9-10,44,40,37,43,40,37,100,99,87,30.55,30.49,30.44,10,6,0,17,9,22,0.38,8,Fog-Rain,203
2013-9-11,48,44,39,45,42,39,100,97,87,30.59,30.55,30.52,10,6,0,15,5,20,0.02,7,Fog-Rain,199
2013-9-12,51,44,37,45,41,37,100,93,62,30.63,30.57,30.52,10,7,0,10,5,17,0.36,6,Fog-Rain-Thunderstorm,137
2013-9-13,44,40,37,43,40,37,100,99,93,30.52,30.46,30.40,10,3,0,22,10,29,0.56,8,Fog-Rain-Thunderstorm,220
2013-9-14,41,37,33,41,37,34,100,100,93,30.44,30.40,30.38,10,3,0,20,11,29,0.30,7,Fog-Rain-Snow-Thunderstorm,225
2013-9-15,46,40,35,41,37,36,100,92,71,30.58,30.50,30.43,10,7,0,16,7,23,0.09,7,Fog-Rain-Thunderstorm,217
2013-9-16,46,40,35,43,38,36,100,92,71,30.62,30.58,30.54,10,7,0,22,10,30,0.08,7,Fog-Rain-Thunderstorm,224
2013-9-17,50,44,37,43,40,34,100,95,71,30.59,30.51,30.42,10,6,0,22,13,32,0.06,7,Fog-Rain-Snow-Thunderstorm,225
2013-9-18,42,38,33,43,40,34,100,100,93,30.45,30.41,30.37,10,3,0,32,17,45,0.62,8,Fog-Rain-Snow-Thunderstorm,223
2013-9-19,46,40,33,41,37,34,100,88,66,30.49,30.43,30.37,10,7,0,21,10,30,0.03,5,Fog-Rain-Thunderstorm,225
2013-9-20,51,43,35,34,29,23,87,62,43,30.54,30.50,30.47,10,10,10,26,12,31,0.00,0,,218
2013-9-21,51,44,37,41,35,27,100,77,50,30.52,30.45,30.36,10,8,0,23,15,34,0.00,5,Fog-Snow,224
2013-9-22,39,32,26,39,34,25,100,100,93,30.35,30.17,29.92,10,2,0,40,18,85,0.97,8,Fog-Rain-Snow-Thunderstorm,218
2013-9-23,35,30,24,34,29,25,100,97,87,30.47,30.22,29.98,10,5,0,34,17,48,0.00,5,Fog-Snow,227
2013-9-24,48,40,32,30,8,-15,93,31,10,30.54,30.48,30.40,10,10,10,25,11,34,0.00,0,,228
2013-9-25,46,39,32,32,26,21,75,60,46,30.39,30.23,30.11,10,10,10,44,22,62,0.00,1,,216
2013-9-26,46,39,32,27,19,14,70,48,31,30.22,30.17,30.14,10,10,10,30,21,47,0.00,2,,212
2013-9-27,35,25,15,32,26,14,100,96,70,30.25,30.11,30.04,10,3,0,37,21,56,0.96,7,Snow,222
2013-9-28,37,26,15,28,14,-8,93,56,21,30.52,30.40,30.24,10,10,10,20,8,24,0.00,0,,234
2013-9-29,42,35,28,27,20,12,69,56,36,30.52,30.47,30.44,10,10,10,24,16,32,0.00,0,,221
2013-9-30,50,42,33,28,19,9,61,43,31,30.46,30.42,30.39,10,10,10,22,16,29,0.00,0,,216